Flag for Germany Weather past 2 weeks in Greifswald, Mecklenburg-Western Pomerania, Germany

Now
33 °F

Light snow. Passing clouds.


Feels Like: 30 °F
Forecast: 30 / 34 °F
Wind: 3 mph from South

Location: Greifswald

Current Time: Jan 29, 2015 at 11:29:07 PM

Latest Report: Jan 29, 2015 at 9:00 PM


Visibility: 14 mi

Pressure: 28.91 "Hg

Humidity: 92%

Dew point: 31 °F

Location of GreifswaldLocation

Historic Weather in Greifswald — Graph

°F

Greifswald temperature yesterday

Maximum temperature yesterday: 41 °F (at 3:00 PM)
Minimum temperature yesterday: 33 °F (at 1:00 AM)
Average temperature yesterday: 37 °F

Past Weeks' High & Low Weather Summary

 TemperatureHumidityPressure
High48 °F (Jan 16, 12:00 AM)100% (Jan 21, 12:00 AM)30.31 "Hg (Jan 21, 12:00 AM)
Low26 °F (Jan 23, 3:00 AM)64% (Jan 16, 1:00 PM)28.91 "Hg (Jan 29, 9:00 PM)
Average35 °F89%29.89 "Hg
* Reported Jan 14 9:00 PM — Jan 29 9:00 PM, Greifswald, Weather by CustomWeather, © 2014

Note: Actual official high and low records may vary slightly from our data, if they occured in-between our weather recording intervals... More about our weather records

Advertising

Greifswald weather history for previous 24 hours

 ConditionsComfort  
Time TempWeatherWind HumidityBarometerVisibility
9:00 PM
Jan 29
33 °FLight snow. Passing clouds.3 mph92%28.91 "Hg14 mi
8:00 PM33 °FPassing clouds.5 mph90%28.94 "Hg22 mi
7:00 PM34 °FPassing clouds.5 mph87%28.94 "Hg22 mi
6:00 PM34 °FPassing clouds.5 mph87%28.97 "Hg28 mi
5:00 PM34 °FPassing clouds.7 mph87%29.00 "Hg22 mi
4:00 PM36 °FScattered clouds.7 mph78%29.00 "Hg28 mi
3:00 PM37 °FOvercast.7 mph75%29.03 "Hg25 mi
2:00 PM37 °FOvercast.6 mph73%29.03 "Hg19 mi
1:00 PM37 °FSleet. Overcast.8 mph72%29.06 "Hg6 mi
12:00 PM37 °FOvercast.7 mph69%29.06 "Hg28 mi
11:00 AM37 °FOvercast.7 mph72%29.09 "Hg22 mi
10:00 AM37 °FOvercast.7 mph73%29.12 "Hg25 mi
9:00 AM36 °FOvercast.7 mph77%29.12 "Hg19 mi
8:00 AM36 °FOvercast.6 mph77%29.12 "Hg22 mi
7:00 AM35 °FPassing clouds.6 mph80%29.12 "Hg19 mi
6:00 AM36 °FLight rain. Overcast.5 mph84%29.12 "Hg19 mi
5:00 AM34 °FLight snow. Low clouds.7 mph94%29.12 "Hg2 mi
4:00 AM36 °FSprinkles. Overcast.7 mph85%29.09 "Hg7 mi
3:00 AM36 °FPassing clouds.7 mph80%29.09 "Hg25 mi
2:00 AM37 °FOvercast.6 mph80%29.09 "Hg25 mi
1:00 AM38 °FOvercast.7 mph84%29.12 "Hg28 mi
12:00 AM37 °FOvercast.7 mph91%29.12 "Hg16 mi
11:00 PM
Jan 28
37 °FLight rain. Overcast.8 mph92%29.12 "Hg8 mi
Weather by CustomWeather, © 2014

See weather overviewHow to use our weather pages